Regional Weather Roundup
Issued by NWS

Home | Current Version | Previous Version | Graphics & Text | Print | Product List | Glossary On
Versions: 1 2 3 4 5 6 7 8 9 10 11 12 13 14 15 16 17 18 19 20 21 22 23 24 25 26 27 28 29 30 31 32 33 34 35 36 37 38 39 40 41 42 43 44 45 46 47 48 49 50
000
ASUS43 KMKX 301900
RWRWI

WISCONSIN REGIONAL WEATHER ROUNDUP
NATIONAL WEATHER SERVICE MILWAUKEE/SULLIVAN WI
200 PM CDT MON MAY 30 2016

NOTE: "FAIR" INDICATES FEW OR NO CLOUDS BELOW 12,000 FEET WITH NO
SIGNIFICANT WEATHER AND/OR OBSTRUCTIONS TO VISIBILITY.

WIZ001-002-006>008-014>016-023>028-302000-
NORTHWEST WISCONSIN

CITY           SKY/WX    TMP DP  RH WIND       PRES   REMARKS
SUPERIOR ARPT  MOSUNNY   79  48  33 W3        29.94F
ASHLAND        MOSUNNY   80  44  27 NW12      29.96F
HAYWARD        MOSUNNY   78  48  34 VRB3      29.98F
SIREN          MOSUNNY   81  47  30 W10       29.98S HX  80
CUMBERLAND     MOSUNNY   77  50  38 SW10      30.00F
RICE LAKE      SUNNY     77  48  35 SW10      30.02S
CHETEK         SUNNY     78  51  39 SW5       30.01S
LADYSMITH      CLOUDY    78  51  38 S7        30.02S
EAU CLAIRE     NOT AVBL
MENOMONIE      MOSUNNY   82  50  33 SW7       30.00F HX  81
NEW RICHMOND   SUNNY     79  51  37 SW8       30.00S
OSCEOLA        MOSUNNY   79  52  38 S10       30.01S
$$

WIZ003>005-009-010-017-018-302000-
NORTH CENTRAL WISCONSIN

CITY           SKY/WX    TMP DP  RH WIND       PRES   REMARKS
MANITOWISH WTR NOT AVBL
ARBOR VITAE    SUNNY     77  49  37 W15G23    30.01S
WOODRUFF       SUNNY     77  49  37 W15G23    30.01S
RHINELANDER    MOSUNNY   77  46  33 W13G21    30.02S HAZE
EAGLE RIVER      N/A     74  42  31 NW12G18   30.01S
LAND O LAKES   MOSUNNY   74  40  29 W9        30.01S
PHILLIPS       MOSUNNY   76  50  39 W9        30.00F
TOMAHAWK       CLOUDY    74  45  36 SW7       30.02F
MEDFORD        SUNNY     73  51  46 SW5       30.03S
MERRILL        MOSUNNY   75  48  37 W13       30.02S
$$

WIZ029-030-035-036-043>047-302000-
CENTRAL WISCONSIN

CITY           SKY/WX    TMP DP  RH WIND       PRES   REMARKS
WAUSAU         MOSUNNY   78  49  35 NW9G20    30.01S
MOSINEE        MOSUNNY   75  48  38 W9        30.04S
MARSHFIELD     SUNNY     78  49  35 W6        30.02F
STEVENS POINT  SUNNY     75  46  36 W9G16     30.03S
WAUPACA        SUNNY     82  44  26 W10       30.01F HX  80
WAUTOMA        SUNNY    N/A N/A N/A CALM      30.00F
WISC RAPIDS    SUNNY     81  43  26 NW10      30.02F
CAMP DOUGLAS   NOT AVBL
$$

WIZ011>013-019>022-031-037>040-048>050-302000-
NORTHEAST WISCONSIN

CITY           SKY/WX    TMP DP  RH WIND       PRES   REMARKS
ANTIGO         CLOUDY    74  51  44 NW10G16   30.03R
SHAWANO        MOSUNNY   80  46  30 W8        30.00F
OCONTO         MOSUNNY   78  49  36 W7        29.98F
STURGEON BAY   NOT AVBL
GREEN BAY      SUNNY     79  51  37 W10G18    29.99F
MANITOWOC      NOT AVBL
APPLETON       MOSUNNY   77  43  29 NW12      30.00F
CLINTONVILLE   MOSUNNY   77  43  29 NW8       30.00F
OSHKOSH        MOSUNNY   78  48  34 CALM      30.00F
$$

WIZ032>034-041-042-053>061-302000-
SOUTHWEST WISCONSIN

CITY           SKY/WX    TMP DP  RH WIND       PRES   REMARKS
LA CROSSE      SUNNY     84  50  30 VRB3      29.99F HX  82
SPARTA         SUNNY     80  45  28 NW10      30.02F
VIROQUA        SUNNY     80  42  26 E3        30.03F
BOSCOBEL       CLOUDY    84  48  28 NE7       29.99F HX  82
PRAIRIE DU CHI SUNNY     80  40  23 SE3       30.00S
PLATTEVILLE    SUNNY     79  47  33 N9        30.01F
$$

WIZ056-057-062-063-064-067-068-302000-
SOUTH CENTRAL WISCONSIN

CITY           SKY/WX    TMP DP  RH WIND       PRES   REMARKS
REEDSBURG      SUNNY     79  50  36 W5        30.01F
BARABOO/DELLS  SUNNY     80  42  26 N5        30.02F
LONE ROCK      NOT AVBL
MINERAL POINT  MOSUNNY   79  41  25 NE6       30.02F
MADISON        MOSUNNY   79  52  38 VRB5      30.00F
MIDDLETON      SUNNY     80  46  30 CALM      30.02F
WATERTOWN      MOSUNNY   78  57  47 W3        30.01F
MONROE         CLOUDY    81  46  30 N7        30.01F HX  80
JANESVILLE     SUNNY     82  48  30 NW7       29.99F HX  81
$$

WIZ051-052-058>065-066-070>072-302000-
SOUTHEAST WISCONSIN

CITY           SKY/WX    TMP DP  RH WIND       PRES   REMARKS
MILWAUKEE      PTSUNNY   75  60  59 SE9       29.99F
WAUKESHA       MOSUNNY   77  55  47 NW12G23   30.01F
MILWAUKEE/TIMM MOSUNNY   81  52  36 MISG      30.01  HX  80
RACINE         MOSUNNY   75  58  55 E10       30.01F
BURLINGTON     MOSUNNY   80  52  37 NW10      30.00F HX  80
KENOSHA        MOSUNNY   83  57  41 NW9       29.99F HX  82
FOND DU LAC    MOSUNNY   79  51  37 CALM      30.01F
SHEBOYGAN      SUNNY     79  50  36 NW10      30.00F
WEST BEND      MOSUNNY   77  52  41 W9        30.01F
JUNEAU         SUNNY     76  53  44 NW7       30.04S
$$

LSZ147-162-302000-
LAKE SUPERIOR

STATION/POSITION TIME  TEMP    WIND        PRES    WAVE
                       AIR SEA DIR/SP/G            HT/PER
                 (UTC) (F)     (DEG/KT/KT) (MB)    (FT/S)
W MID LAKE BUOY  1750   45 38  220/  8/  8 1014.4S   1/ 3
DEVILS ISLAND    1800   66     230/ 12/ 14 1014.1F
SAXON HARBOR     1800   72      50/  2/  3 1014.6
$$

LMZ867-665-643>646-302000-
LAKE MICHIGAN

STATION/POSITION TIME  TEMP    WIND        PRES    WAVE
                       AIR SEA DIR/SP/G            HT/PER
                 (UTC) (F)     (DEG/KT/KT) (MB)    (FT/S)
CHAMBERS ISLAND  1800   73     200/  3/  7 1015.2R
N MID LAKE BUOY  1750   53 49  200/  6/  6 1014.9F   1
NORTHPORT PIER   1800   71     310/  7/ 11 1014.9S
KEWAUNEE LAKESHO 1800          170/ 13/ 15 1015.5R
SHEBOYGAN LAKESH 1800   63     180/  8/ 10 1016.6F
PORT WASHINGTON  1800   67     160/  3/  5 1017.3S
S MID LAKE BUOY  1750   58 55  170/  2/  4 1016.7F   0
KENOSHA   LAKESH 1800   66     150/  7/  9 1015.9F
$$

TC  - TEMPERATURE IN CELSIUS
VSB - VISIBILITY IN STATUTE MILES
WCI - WIND CHILL INDEX
HX  - HEAT INDEX





USA.gov is the U.S. government's official web portal to all federal, state and local government web resources and services.